TimeIST,TemperatureF,Dew PointF,Humidity,Sea Level PressureIn,VisibilityMPH,Wind Direction,Wind SpeedMPH,Gust SpeedMPH,PrecipitationIn,Events,Conditions,WindDirDegrees,DateUTC
12:00 AM,44.6,42.8,93,30.01,6.2,NNE,8.1,-,N/A,,Partly Cloudy,30,2012-10-08 23:00:00
12:30 AM,44.6,42.8,93,30.01,6.2,NNE,6.9,-,N/A,,Partly Cloudy,30,2012-10-08 23:30:00
1:00 AM,44,42,89,30.03,16,NNE,6.7,,,,Scattered Clouds,30,2012-10-09 00:00:00
1:00 AM,42.8,41.0,93,30.01,6.2,NE,5.8,-,N/A,,Partly Cloudy,40,2012-10-09 00:00:00
1:30 AM,39.2,37.4,93,30.01,6.2,NNE,5.8,-,N/A,,Scattered Clouds,20,2012-10-09 00:30:00
2:00 AM,37.4,37.4,100,30.01,6.2,NNE,4.6,-,N/A,,Scattered Clouds,30,2012-10-09 01:00:00
2:30 AM,37.4,37.4,100,30.01,6.2,NNW,3.5,-,N/A,,Scattered Clouds,340,2012-10-09 01:30:00
3:00 AM,37.4,37.4,100,30.01,6.2,North,4.6,-,N/A,,Partly Cloudy,360,2012-10-09 02:00:00
3:30 AM,39.2,37.4,93,30.01,6.2,NNW,2.3,-,N/A,,Partly Cloudy,330,2012-10-09 02:30:00
4:00 AM,39.2,39.2,100,29.98,6.2,North,5.8,-,N/A,,Partly Cloudy,350,2012-10-09 03:00:00
4:30 AM,41.0,39.2,93,29.98,6.2,North,5.8,-,N/A,,Partly Cloudy,360,2012-10-09 03:30:00
5:00 AM,41.0,39.2,93,29.98,6.2,North,5.8,-,N/A,,Partly Cloudy,10,2012-10-09 04:00:00
5:30 AM,41.0,39.2,93,29.98,6.2,North,4.6,-,N/A,,Partly Cloudy,350,2012-10-09 04:30:00
6:00 AM,39.2,39.2,100,29.98,6.2,NNW,6.9,-,N/A,,Partly Cloudy,340,2012-10-09 05:00:00
6:30 AM,39.2,39.2,100,29.98,6.2,North,5.8,-,N/A,,Partly Cloudy,350,2012-10-09 05:30:00
7:00 AM,40,39,93,30.01,19,North,6.7,,,,Scattered Clouds,350,2012-10-09 06:00:00
7:00 AM,39.2,39.2,100,29.98,6.2,North,5.8,17.3,N/A,,Partly Cloudy,360,2012-10-09 06:00:00
7:30 AM,39.2,37.4,93,30.01,6.2,North,5.8,-,N/A,,Scattered Clouds,350,2012-10-09 06:30:00
8:00 AM,39.2,37.4,93,30.01,6.2,North,4.6,-,N/A,,Scattered Clouds,350,2012-10-09 07:00:00
8:30 AM,39.2,39.2,100,30.01,6.2,North,4.6,-,N/A,,Mostly Cloudy,350,2012-10-09 07:30:00
9:00 AM,44.6,44.6,100,30.01,6.2,NNE,5.8,-,N/A,,Mostly Cloudy,20,2012-10-09 08:00:00
9:30 AM,44.6,44.6,100,30.01,6.2,NE,6.9,-,N/A,,Mostly Cloudy,50,2012-10-09 08:30:00
10:00 AM,48.2,46.4,93,30.01,6.2,NE,5.8,-,N/A,,Mostly Cloudy,50,2012-10-09 09:00:00
10:30 AM,50.0,48.2,94,30.01,6.2,ENE,5.8,-,N/A,,Mostly Cloudy,70,2012-10-09 09:30:00
11:00 AM,51.8,50.0,94,30.01,6.2,East,11.5,-,N/A,,Mostly Cloudy,90,2012-10-09 10:00:00
11:30 AM,51.8,48.2,88,30.01,6.2,East,12.7,-,N/A,,Mostly Cloudy,80,2012-10-09 10:30:00
12:00 PM,51.8,48.2,88,30.04,6.2,East,12.7,-,N/A,,Mostly Cloudy,90,2012-10-09 11:00:00
12:30 PM,53.6,48.2,82,30.01,6.2,East,12.7,-,N/A,,Mostly Cloudy,80,2012-10-09 11:30:00
1:00 PM,53.6,46.4,77,30.01,6.2,ENE,12.7,-,N/A,,Mostly Cloudy,70,2012-10-09 12:00:00
1:30 PM,53.6,48.2,82,30.01,6.2,ENE,11.5,-,N/A,,Mostly Cloudy,70,2012-10-09 12:30:00
2:00 PM,53.6,46.4,77,30.01,6.2,East,11.5,-,N/A,,Mostly Cloudy,80,2012-10-09 13:00:00
2:30 PM,53.6,46.4,77,30.01,6.2,ENE,9.2,-,N/A,,Scattered Clouds,70,2012-10-09 13:30:00
3:00 PM,53.6,48.2,82,30.01,6.2,ENE,8.1,-,N/A,,Scattered Clouds,70,2012-10-09 14:00:00
3:30 PM,51.8,48.2,88,30.01,6.2,NE,11.5,-,N/A,,Scattered Clouds,50,2012-10-09 14:30:00
4:00 PM,53.6,48.2,82,30.01,6.2,ENE,11.5,-,N/A,,Scattered Clouds,60,2012-10-09 15:00:00
4:30 PM,51.8,46.4,82,30.01,6.2,NE,12.7,-,N/A,,Scattered Clouds,40,2012-10-09 15:30:00
5:00 PM,51.8,46.4,82,30.01,6.2,NE,12.7,-,N/A,,Scattered Clouds,50,2012-10-09 16:00:00
5:30 PM,51.8,44.6,76,30.01,6.2,NE,9.2,-,N/A,,Scattered Clouds,50,2012-10-09 16:30:00
6:00 PM,50.0,44.6,82,30.01,6.2,NE,8.1,-,N/A,,Scattered Clouds,40,2012-10-09 17:00:00
6:30 PM,48.2,44.6,87,30.01,6.2,NNE,6.9,-,N/A,,Scattered Clouds,20,2012-10-09 17:30:00
7:00 PM,49,45,80,30.02,16,North,4.5,,,,Mostly Cloudy,350,2012-10-09 18:00:00
7:00 PM,48.2,44.6,87,30.01,6.2,North,4.6,-,N/A,,Mostly Cloudy,350,2012-10-09 18:00:00
7:30 PM,46.4,44.6,93,30.01,6.2,North,3.5,-,N/A,,Mostly Cloudy,360,2012-10-09 18:30:00
8:00 PM,46.4,44.6,93,30.01,6.2,Calm,Calm,-,N/A,,Mostly Cloudy,0,2012-10-09 19:00:00
8:30 PM,46.4,42.8,87,30.01,6.2,NW,3.5,-,N/A,,Partly Cloudy,310,2012-10-09 19:30:00
9:00 PM,42.8,41.0,93,30.01,6.2,Variable,2.3,-,N/A,,Partly Cloudy,0,2012-10-09 20:00:00
9:30 PM,41.0,39.2,93,30.01,6.2,Variable,3.5,-,N/A,,Partly Cloudy,0,2012-10-09 20:30:00
10:00 PM,39.2,39.2,100,30.01,6.2,Variable,2.3,-,N/A,,Partly Cloudy,0,2012-10-09 21:00:00
10:30 PM,39.2,39.2,100,30.01,5.6,North,2.3,-,N/A,,Partly Cloudy,350,2012-10-09 21:30:00
11:00 PM,39.2,39.2,100,30.01,5.0,NNE,2.3,-,N/A,,Scattered Clouds,20,2012-10-09 22:00:00
11:30 PM,39.2,39.2,100,30.01,4.3,NNE,2.3,-,N/A,,Scattered Clouds,30,2012-10-09 22:30:00